OPS 4682 DEB, 55117

Orbit data source: Space-Track

OPS 4682 DEB, 55117 is space debris in LEO originally from a launch on Sat, 03 Apr 1965 UTC launched from the Air Force Western Test Range (AFWTR). Debris objects in space refer to the collection of defunct objects orbiting the Earth. Examples of debris include non-operational satellites, rocket bodies, and fragments generated from explosions, collisions, or faulty payload assembly.

Loading next visibility...
Identifier
55117, 1965-027HG
Orbit
LEO
Country
Flag of USUS
Related business
Manufacturer
Unknown
Mission
Spacecraft
Bus & Motor
Unknown
Mass
Unknown
Launch date (UTC)
1965-04-03 (61 years ago)
Launch vehicle
Unknown
Launch site
Air Force Western Test Range (AFWTR)
Object type
Payload
Rocket body
Debris
Shape & HBR
Unknown shape, 0.1 m
Radar Cross Section
Medium (>0.1 m² and <1 m²)

Expand to show TLE details & history
Last TLE update: 6 days ago

TLE from 6 days ago
0 OPS 4682 DEB
1 55117U 65027HG  26258.55310660  .00000141  00000-0  48610-3 0  9996
2 55117  90.2511  11.2058 0028942   4.0953 356.0397 12.93727017520607
Epoch: 2026-09-15T13:16Z
TLE epoch observation values (Epoch: 2026-09-15T13:16:28.410Z)
Latitude
-0.00001°
Longitude
177.57002°
Altitude
1,267.504 km
Speed
7.232 km/s
True Right ascension
00h 44m 49s
True Declination
0° 00' 00"
Sunlit
Object was in full shadow at epoch
Visualization orbit readout
Latitude
Unknown
Longitude
Unknown
Altitude
Unknown
Speed
Unknown
Apparent Right ascension
Unknown
Apparent Declination
Unknown
Sunlit
N/A
Visualization observer readout
Local Sidereal Time
00:09:44
Azimuth
Unknown
Elevation
Unknown
Doppler factor
Unknown
Orbital elements
Apogee altitude
1,306.076 km
Perigee altitude
1,261.725 km
Semi-major axis
7,662.037 km
Eccentricity
0.00289
Inclination
90.2511°
RAAN
11.2058°
Arg. of periapsis
4.0953°
True anomaly
356.01671°
Mean anomaly
356.0397°
Eccentric anomaly
356.02821°
Mean motion
3.23614 °/min
Orbital period
111.24 mins
BSTAR
0.0004861
Loading maneuver chart data...
Computing Atmospheric mass density...
Loading historical data...
Loading historical data...
Loading historical data...
Loading historical data...
Loading historical data...
Loading historical data...
Loading historical data...

Documentation

Showing up to 5 results
|